Change the Weather History Date:

Friday, April 11, 2014

  Actual Average Record
Temperature  
Mean Temperature 51 °F 44 °F  
Max Temperature 67 °F 52 °F 83 °F (1977)
Min Temperature 34 °F 36 °F 17 °F (1973)
Degree Days  
Heating Degree Days 14 21  
Month to date heating degree days 238 253  
Since 1 July heating degree days 7004 6162  
Cooling Degree Days 0 0  
Month to date cooling degree days 0 0  
Year to date cooling degree days 0 0  
Moisture  
Dew Point 24 °F    
Average Humidity 39    
Maximum Humidity 62    
Minimum Humidity 16    
Precipitation  
Precipitation T in 0.13 in 1.70 in (1871)
Month to date precipitation 0.33 1.30  
Year to date precipitation 4.19 6.98  
Snow  
Snow 0.00 in 0.10 in 7.00 in (2007)
Month to date snowfall T 1.2  
Since 1 July snowfall 63.1 46.0  
Snow Depth 0.00 in    
Sea Level Pressure  
Sea Level Pressure 29.99 in    
Wind  
Wind Speed 8 mph (West)    
Max Wind Speed 22 mph    
Max Gust Speed 29 mph    
Visibility 10 miles    
Events      
T = Trace of Precipitation, MM = Missing Value Source: NWS Daily Summary

Daily Weather History Graph

Daily Weather History Graph

Search for Another Location

Airport or City:

Trip Planner

Search our weather history database for the weather conditions in past years. The results will help you decide how hot, cold, wet, or windy it might be!

Date:

Astronomy

Apr. 11, 2014 Rise Set
Actual Time 6:16 AM CDT 7:29 PM CDT
Civil Twilight 5:47 AM CDT 7:58 PM CDT
Nautical Twilight 5:12 AM CDT 8:33 PM CDT
Astronomical Twilight 4:35 AM CDT 9:10 PM CDT
Moon 4:05 PM CDT (4/11) 4:16 AM CDT (4/11)
Length of Visible Light 14h 11m
Length of Day
13h 13m
Waxing Gibbous, 87% of the Moon is Illuminated
Apr 11
Waxing Gibbous
Apr 15
Full
Apr 22
Last Quarter
Apr 29
New
May 6
First Quarter

Hourly Weather History & Observations

Time (CDT) Temp. Windchill Dew Point Humidity Pressure Visibility Wind Dir Wind Speed Gust Speed Precip Events Conditions
12:52 AM 46.0 °F 43.9 °F 23.0 °F 40% 29.96 in 10.0 mi NW 4.6 mph - N/A   Mostly Cloudy
1:52 AM 44.1 °F 40.8 °F 21.9 °F 42% 29.96 in 10.0 mi NNW 5.8 mph - N/A   Mostly Cloudy
2:52 AM 44.1 °F - 21.9 °F 42% 29.97 in 10.0 mi Calm Calm - N/A   Mostly Cloudy
3:52 AM 39.9 °F - 23.0 °F 51% 29.98 in 10.0 mi Calm Calm - N/A   Mostly Cloudy
4:52 AM 37.0 °F - 23.0 °F 57% 29.99 in 10.0 mi Calm Calm - N/A   Mostly Cloudy
5:52 AM 37.0 °F - 23.0 °F 57% 30.01 in 10.0 mi Calm Calm - N/A   Mostly Cloudy
6:52 AM 39.9 °F - 23.0 °F 51% 30.02 in 10.0 mi Calm Calm - N/A   Mostly Cloudy
7:52 AM 50.0 °F - 21.0 °F 32% 30.04 in 10.0 mi Calm Calm - N/A   Partly Cloudy
8:52 AM 54.0 °F - 19.9 °F 26% 30.02 in 10.0 mi SSW 8.1 mph - N/A   Partly Cloudy
9:52 AM 57.9 °F - 19.0 °F 22% 30.03 in 10.0 mi SSW 10.4 mph - N/A   Partly Cloudy
10:52 AM 61.0 °F - 19.9 °F 21% 30.02 in 10.0 mi South 11.5 mph - N/A   Partly Cloudy
11:52 AM 63.0 °F - 19.9 °F 19% 30.01 in 10.0 mi SW 11.5 mph 17.3 mph N/A   Scattered Clouds
12:52 PM 64.9 °F - 21.0 °F 19% 29.99 in 10.0 mi SW 11.5 mph 20.7 mph N/A   Partly Cloudy
1:52 PM 66.9 °F - 19.9 °F 17% 29.97 in 10.0 mi WSW 18.4 mph 24.2 mph N/A   Scattered Clouds
2:52 PM 64.0 °F - 23.0 °F 21% 29.99 in 10.0 mi West 20.7 mph 28.8 mph N/A   Overcast
3:52 PM 61.0 °F - 28.0 °F 29% 29.99 in 10.0 mi WNW 15.0 mph 19.6 mph N/A   Mostly Cloudy
4:52 PM 64.9 °F - 27.0 °F 24% 29.95 in 10.0 mi WSW 9.2 mph - 0.00 in   Scattered Clouds
5:52 PM 64.9 °F - 27.0 °F 24% 29.95 in 10.0 mi WNW 18.4 mph 28.8 mph N/A   Mostly Cloudy
5:59 PM 64.9 °F - 27.0 °F 24% 29.94 in 10.0 mi West 10.4 mph 25.3 mph N/A   Mostly Cloudy
6:52 PM 64.9 °F - 27.0 °F 24% 29.94 in 10.0 mi West 4.6 mph - N/A   Mostly Cloudy
7:52 PM 48.9 °F - 28.9 °F 46% 29.96 in 10.0 mi Calm Calm - N/A   Scattered Clouds
8:52 PM 48.9 °F - 28.9 °F 46% 29.99 in 10.0 mi SE 3.5 mph - N/A   Partly Cloudy
9:52 PM 44.1 °F 37.4 °F 30.9 °F 60% 30.01 in 10.0 mi NNE 13.8 mph - N/A   Partly Cloudy
10:52 PM 43.0 °F 37.7 °F 30.0 °F 60% 30.02 in 10.0 mi North 9.2 mph - N/A   Partly Cloudy
11:52 PM 43.0 °F 39.5 °F 30.0 °F 60% 30.03 in 10.0 mi NNE 5.8 mph - N/A   Clear